START_TIME,STEP,MOV.,M35,t_acc.,PL05,t_acc.,PL06,t_acc.,PL07,t_acc.
1981-08-29 12:00:24.520 ,5,0,0.,4.8,2.,4.8,0.,4.8,0.,4.8
1981-08-29 12:00:29.320 ,5,0,0.,4.8,0.,4.8,0.,4.8,0.,4.8
1981-08-29 12:00:34.120 ,5,0,0.,4.8,0.,4.8,1.,4.8,1.,4.8
1981-08-29 12:00:38.920 ,5,0,0.,4.8,3.,4.8,2.,4.8,0.,4.8
1981-08-29 12:00:43.720 ,5,0,0.,4.8,2.,4.8,0.,4.8,0.,4.8
1981-08-29 12:00:48.520 ,4,0,0.,4.8,1.,4.8,2.,4.8,1.,4.8
1981-08-29 12:00:53.320 ,4,0,0.,4.8,3.,4.8,1.,4.8,0.,4.8
1981-08-29 12:00:58.120 ,4,0,0.,4.8,3.,4.8,0.,4.8,0.,4.8
1981-08-29 12:01:02.920 ,4,0,0.,4.8,0.,4.8,0.,4.8,0.,4.8
1981-08-29 12:01:07.720 ,4,0,0.,4.8,2.,4.8,1.,4.8,0.,4.8
1981-08-29 12:01:12.520 ,4,0,0.,4.8,0.,4.8,0.,4.8,0.,4.8
1981-08-29 12:01:17.320 ,4,0,0.,4.8,0.,4.8,0.,4.8,0.,4.8
1981-08-29 12:01:22.120 ,4,0,0.,4.8,1.,4.8,0.,4.8,0.,4.8
1981-08-29 12:01:26.920 ,4,0,0.,4.8,1.,4.8,0.,4.8,0.,4.8
1981-08-29 12:01:31.720 ,4,0,0.,4.8,1.,4.8,0.,4.8,0.,4.8
1981-08-29 12:01:36.520 ,3,0,0.,4.8,0.,4.8,0.,4.8,0.,4.8
1981-08-29 12:01:41.320 ,3,0,0.,4.8,1.,4.8,0.,4.8,1.,4.8
1981-08-29 12:01:46.120 ,3,0,0.,4.8,2.,4.8,2.,4.8,3.,4.8
1981-08-29 12:01:50.920 ,3,0,0.,4.8,2.,4.8,0.,4.8,0.,4.8
1981-08-29 12:01:55.720 ,3,0,0.,4.8,2.,4.8,0.,4.8,0.,4.8
1981-08-29 12:02:00.520 ,3,0,0.,4.8,2.,4.8,0.,4.8,0.,4.8
1981-08-29 12:02:05.320 ,3,0,0.,4.8,1.,4.8,2.,4.8,1.,4.8
1981-08-29 12:02:10.120 ,3,0,0.,4.8,2.,4.8,0.,4.8,0.,4.8
1981-08-29 12:02:14.920 ,3,0,0.,4.8,2.,4.8,0.,4.8,1.,4.8
1981-08-29 12:02:19.720 ,3,0,0.,4.8,2.,4.8,0.,4.8,2.,4.8
1981-08-29 12:02:24.520 ,2,0,0.,4.8,1.,4.8,1.,4.8,1.,4.8
1981-08-29 12:02:29.320 ,2,0,0.,4.8,0.,4.8,0.,4.8,0.,4.8
1981-08-29 12:02:34.120 ,2,0,0.,4.8,5.,4.8,0.,4.8,1.,4.8
1981-08-29 12:02:38.920 ,2,0,0.,4.8,1.,4.8,0.,4.8,0.,4.8
1981-08-29 12:02:43.720 ,2,0,0.,4.8,4.,4.8,0.,4.8,0.,4.8
1981-08-29 12:02:48.520 ,2,0,0.,4.8,1.,4.8,0.,4.8,0.,4.8
1981-08-29 12:02:53.320 ,2,0,0.,4.8,1.,4.8,1.,4.8,0.,4.8
1981-08-29 12:02:58.120 ,2,0,0.,4.8,0.,4.8,0.,4.8,0.,4.8
1981-08-29 12:03:02.920 ,2,0,0.,4.8,3.,4.8,0.,4.8,0.,4.8
1981-08-29 12:03:07.720 ,2,0,0.,4.8,4.,4.8,0.,4.8,0.,4.8
1981-08-29 12:03:12.520 ,1,0,0.,4.8,4.,4.8,0.,4.8,0.,4.8
1981-08-29 12:03:17.320 ,1,0,0.,4.8,1.,4.8,0.,4.8,0.,4.8
1981-08-29 12:03:22.120 ,1,0,0.,4.8,0.,4.8,0.,4.8,0.,4.8
1981-08-29 12:03:26.920 ,1,0,0.,4.8,1.,4.8,0.,4.8,0.,4.8
1981-08-29 12:03:31.720 ,1,0,0.,4.8,4.,4.8,0.,4.8,0.,4.8
1981-08-29 12:03:36.520 ,1,0,0.,4.8,1.,4.8,0.,4.8,0.,4.8
1981-08-29 12:03:41.320 ,1,0,0.,4.8,2.,4.8,0.,4.8,0.,4.8
1981-08-29 12:03:46.120 ,1,0,0.,4.8,2.,4.8,0.,4.8,1.,4.8
1981-08-29 12:03:50.920 ,1,0,0.,4.8,3.,4.8,0.,4.8,0.,4.8
1981-08-29 12:03:55.720 ,1,0,0.,4.8,3.,4.8,2.,4.8,0.,4.8
1981-08-29 12:04:00.520 ,0,0,0.,4.8,2.,4.8,0.,4.8,1.,4.8
1981-08-29 12:04:05.320 ,0,0,0.,4.8,0.,4.8,0.,4.8,0.,4.8
1981-08-29 12:04:10.120 ,0,0,0.,4.8,2.,4.8,0.,4.8,0.,4.8
1981-08-29 12:04:14.920 ,0,0,0.,4.8,4.,4.8,0.,4.8,0.,4.8
1981-08-29 12:04:19.720 ,0,0,0.,4.8,1.,4.8,2.,4.8,0.,4.8
1981-08-29 12:04:24.520 ,0,0,0.,4.8,1.,4.8,0.,4.8,0.,4.8
1981-08-29 12:04:29.320 ,0,0,0.,4.8,0.,4.8,0.,4.8,1.,4.8
1981-08-29 12:04:34.120 ,0,0,0.,4.8,2.,4.8,0.,4.8,0.,4.8
1981-08-29 12:04:38.920 ,0,0,0.,4.8,1.,4.8,1.,4.8,0.,4.8
1981-08-29 12:04:43.720 ,0,0,0.,4.8,5.,4.8,0.,4.8,1.,4.8
1981-08-29 12:04:48.520 ,0,0,0.,4.8,1.,4.8,1.,4.8,0.,4.8
1981-08-29 12:04:53.320 ,0,0,0.,4.8,1.,4.8,0.,4.8,0.,4.8
1981-08-29 12:04:58.120 ,0,0,0.,4.8,2.,4.8,0.,4.8,0.,4.8
1981-08-29 12:05:02.920 ,0,0,0.,4.8,2.,4.8,0.,4.8,0.,4.8
1981-08-29 12:05:07.720 ,0,0,0.,4.8,1.,4.8,0.,4.8,0.,4.8
1981-08-29 12:05:12.520 ,0,0,0.,4.8,1.,4.8,0.,4.8,0.,4.8
1981-08-29 12:05:17.320 ,0,0,0.,4.8,1.,4.8,3.,4.8,0.,4.8
1981-08-29 12:05:22.120 ,0,0,0.,4.8,2.,4.8,0.,4.8,0.,4.8
1981-08-29 12:05:26.920 ,0,0,0.,4.8,4.,4.8,0.,4.8,0.,4.8
1981-08-29 12:05:31.720 ,0,0,0.,4.8,3.,4.8,0.,4.8,0.,4.8
1981-08-29 12:05:36.520 ,1,0,0.,4.8,1.,4.8,0.,4.8,0.,4.8
1981-08-29 12:05:41.320 ,1,0,0.,4.8,4.,4.8,0.,4.8,0.,4.8
1981-08-29 12:05:46.120 ,1,0,0.,4.8,4.,4.8,0.,4.8,1.,4.8
1981-08-29 12:05:50.920 ,1,0,0.,4.8,0.,4.8,0.,4.8,0.,4.8
1981-08-29 12:05:55.720 ,1,0,0.,4.8,4.,4.8,1.,4.8,0.,4.8
1981-08-29 12:06:00.520 ,1,0,0.,4.8,1.,4.8,0.,4.8,0.,4.8
1981-08-29 12:06:05.320 ,1,0,0.,4.8,2.,4.8,1.,4.8,0.,4.8
1981-08-29 12:06:10.120 ,1,0,0.,4.8,2.,4.8,0.,4.8,0.,4.8
1981-08-29 12:06:14.920 ,1,0,0.,4.8,2.,4.8,0.,4.8,0.,4.8
1981-08-29 12:06:19.720 ,1,0,0.,4.8,0.,4.8,1.,4.8,0.,4.8
1981-08-29 12:06:24.520 ,2,0,0.,4.8,1.,4.8,0.,4.8,0.,4.8
1981-08-29 12:06:29.320 ,2,0,0.,4.8,1.,4.8,0.,4.8,0.,4.8
1981-08-29 12:06:34.120 ,2,0,0.,4.8,0.,4.8,0.,4.8,0.,4.8
1981-08-29 12:06:38.920 ,2,0,0.,4.8,2.,4.8,0.,4.8,0.,4.8
1981-08-29 12:06:43.720 ,2,0,0.,4.8,2.,4.8,1.,4.8,1.,4.8
1981-08-29 12:06:48.520 ,2,0,0.,4.8,1.,4.8,1.,4.8,0.,4.8
1981-08-29 12:06:53.320 ,2,0,0.,4.8,1.,4.8,0.,4.8,0.,4.8
1981-08-29 12:06:58.120 ,2,0,0.,4.8,3.,4.8,1.,4.8,0.,4.8
1981-08-29 12:07:02.920 ,2,0,0.,4.8,2.,4.8,1.,4.8,0.,4.8
1981-08-29 12:07:07.720 ,2,0,0.,4.8,0.,4.8,0.,4.8,0.,4.8
1981-08-29 12:07:12.520 ,3,0,0.,4.8,1.,4.8,1.,4.8,0.,4.8
1981-08-29 12:07:17.320 ,3,0,0.,4.8,2.,4.8,2.,4.8,0.,4.8
1981-08-29 12:07:22.120 ,3,0,0.,4.8,0.,4.8,1.,4.8,0.,4.8
1981-08-29 12:07:26.920 ,3,0,0.,4.8,0.,4.8,0.,4.8,0.,4.8
1981-08-29 12:07:31.720 ,3,0,0.,4.8,0.,4.8,0.,4.8,0.,4.8
1981-08-29 12:07:36.520 ,3,0,0.,4.8,3.,4.8,0.,4.8,0.,4.8
1981-08-29 12:07:41.320 ,3,0,0.,4.8,0.,4.8,0.,4.8,0.,4.8
1981-08-29 12:07:46.120 ,3,0,0.,4.8,1.,4.8,1.,4.8,0.,4.8
1981-08-29 12:07:50.920 ,3,0,0.,4.8,1.,4.8,0.,4.8,0.,4.8
1981-08-29 12:07:55.720 ,3,0,0.,4.8,2.,4.8,0.,4.8,1.,4.8
1981-08-29 12:08:00.520 ,4,0,0.,4.8,2.,4.8,0.,4.8,1.,4.8
1981-08-29 12:08:05.320 ,4,0,0.,4.8,2.,4.8,0.,4.8,0.,4.8
1981-08-29 12:08:10.120 ,4,0,0.,4.8,2.,4.8,1.,4.8,1.,4.8
1981-08-29 12:08:14.920 ,4,0,0.,4.8,1.,4.8,0.,4.8,0.,4.8
1981-08-29 12:08:19.720 ,4,0,0.,4.8,2.,4.8,1.,4.8,0.,4.8
1981-08-29 12:08:24.520 ,4,0,0.,4.8,3.,4.8,0.,4.8,0.,4.8
1981-08-29 12:08:29.320 ,4,0,0.,4.8,2.,4.8,0.,4.8,0.,4.8
1981-08-29 12:08:34.120 ,4,0,0.,4.8,2.,4.8,0.,4.8,1.,4.8
1981-08-29 12:08:38.920 ,4,0,0.,4.8,1.,4.8,0.,4.8,0.,4.8
1981-08-29 12:08:43.720 ,4,0,0.,4.8,1.,4.8,0.,4.8,2.,4.8
1981-08-29 12:08:48.520 ,5,0,0.,4.8,1.,4.8,3.,4.8,0.,4.8
1981-08-29 12:08:53.320 ,5,0,0.,4.8,1.,4.8,0.,4.8,1.,4.8
1981-08-29 12:08:58.120 ,5,0,0.,4.8,1.,4.8,1.,4.8,0.,4.8
1981-08-29 12:09:02.920 ,5,0,0.,4.8,3.,4.8,0.,4.8,0.,4.8
1981-08-29 12:09:07.720 ,5,0,0.,4.8,1.,4.8,2.,4.8,0.,4.8
1981-08-29 12:09:12.520 ,5,0,0.,4.8,0.,4.8,0.,4.8,1.,4.8
1981-08-29 12:09:17.320 ,5,0,0.,4.8,3.,4.8,0.,4.8,0.,4.8
1981-08-29 12:09:22.120 ,5,0,0.,4.8,5.,4.8,0.,4.8,0.,4.8
1981-08-29 12:09:26.920 ,5,0,0.,4.8,2.,4.8,2.,4.8,0.,4.8
1981-08-29 12:09:31.720 ,5,0,0.,4.8,2.,4.8,1.,4.8,0.,4.8
1981-08-29 12:09:36.520 ,6,0,0.,4.8,2.,4.8,2.,4.8,0.,4.8
1981-08-29 12:09:41.320 ,6,0,0.,4.8,2.,4.8,1.,4.8,0.,4.8
1981-08-29 12:09:46.120 ,6,0,0.,4.8,0.,4.8,1.,4.8,0.,4.8
1981-08-29 12:09:50.920 ,6,0,0.,4.8,1.,4.8,1.,4.8,0.,4.8
1981-08-29 12:09:55.720 ,6,0,0.,4.8,1.,4.8,0.,4.8,0.,4.8
1981-08-29 12:10:00.520 ,6,0,0.,4.8,1.,4.8,0.,4.8,0.,4.8
1981-08-29 12:10:05.320 ,6,0,0.,4.8,3.,4.8,1.,4.8,0.,4.8
1981-08-29 12:10:10.120 ,6,0,0.,4.8,1.,4.8,2.,4.8,0.,4.8
1981-08-29 12:10:14.920 ,6,0,0.,4.8,6.,4.8,1.,4.8,0.,4.8
1981-08-29 12:10:19.720 ,6,0,0.,4.8,1.,4.8,0.,4.8,0.,4.8
1981-08-29 12:10:24.520 ,7,0,0.,4.8,4.,4.8,0.,4.8,1.,4.8
1981-08-29 12:10:29.320 ,7,0,0.,4.8,1.,4.8,2.,4.8,0.,4.8
1981-08-29 12:10:34.120 ,7,0,0.,4.8,0.,4.8,0.,4.8,0.,4.8
1981-08-29 12:10:38.920 ,7,0,0.,4.8,2.,4.8,0.,4.8,0.,4.8
1981-08-29 12:10:43.720 ,7,0,0.,4.8,1.,4.8,0.,4.8,0.,4.8
1981-08-29 12:10:48.520 ,7,0,0.,4.8,0.,4.8,0.,4.8,0.,4.8
1981-08-29 12:10:53.320 ,7,0,0.,4.8,0.,4.8,0.,4.8,0.,4.8
1981-08-29 12:10:58.120 ,7,0,0.,4.8,0.,4.8,0.,4.8,0.,4.8
1981-08-29 12:11:02.920 ,7,0,0.,4.8,0.,4.8,0.,4.8,0.,4.8
1981-08-29 12:11:07.720 ,7,0,0.,4.8,0.,4.8,0.,4.8,0.,4.8
1981-08-29 12:11:12.520 ,7,0,0.,4.8,0.,4.8,1.,4.8,0.,4.8
1981-08-29 12:11:17.320 ,7,0,0.,4.8,0.,4.8,0.,4.8,0.,4.8
1981-08-29 12:11:22.120 ,7,0,0.,4.8,0.,4.8,0.,4.8,0.,4.8
1981-08-29 12:11:26.920 ,7,0,0.,4.8,0.,4.8,0.,4.8,0.,4.8
1981-08-29 12:11:31.720 ,7,0,0.,4.8,0.,4.8,0.,4.8,0.,4.8
1981-08-29 12:11:36.520 ,6,0,0.,4.8,0.,4.8,0.,4.8,0.,4.8
1981-08-29 12:11:41.320 ,6,0,0.,4.8,0.,4.8,0.,4.8,0.,4.8
1981-08-29 12:11:46.120 ,6,0,0.,4.8,4.,4.8,1.,4.8,0.,4.8
1981-08-29 12:11:50.920 ,6,0,0.,4.8,4.,4.8,0.,4.8,0.,4.8
1981-08-29 12:11:55.720 ,6,0,0.,4.8,1.,4.8,0.,4.8,0.,4.8
1981-08-29 12:12:00.520 ,5,0,0.,4.8,0.,4.8,0.,4.8,0.,4.8
1981-08-29 12:12:05.320 ,5,0,0.,4.8,2.,4.8,2.,4.8,1.,4.8
1981-08-29 12:12:10.120 ,5,0,0.,4.8,0.,4.8,1.,4.8,0.,4.8
1981-08-29 12:12:14.920 ,5,0,0.,4.8,0.,4.8,0.,4.8,0.,4.8
1981-08-29 12:12:19.720 ,5,0,0.,4.8,2.,4.8,0.,4.8,0.,4.8
1981-08-29 12:12:24.520 ,4,0,0.,4.8,1.,4.8,0.,4.8,0.,4.8
1981-08-29 12:12:29.320 ,4,0,0.,4.8,1.,4.8,0.,4.8,0.,4.8
1981-08-29 12:12:34.120 ,4,0,0.,4.8,0.,4.8,0.,4.8,2.,4.8
1981-08-29 12:12:38.920 ,4,0,0.,4.8,1.,4.8,0.,4.8,0.,4.8
1981-08-29 12:12:43.720 ,4,0,0.,4.8,0.,4.8,1.,4.8,0.,4.8
1981-08-29 12:12:48.520 ,3,0,0.,4.8,0.,4.8,0.,4.8,0.,4.8
1981-08-29 12:12:53.320 ,3,0,0.,4.8,2.,4.8,0.,4.8,1.,4.8
1981-08-29 12:12:58.120 ,3,0,0.,4.8,1.,4.8,1.,4.8,0.,4.8
1981-08-29 12:13:02.920 ,3,0,0.,4.8,1.,4.8,1.,4.8,0.,4.8
1981-08-29 12:13:07.720 ,3,0,0.,4.8,1.,4.8,1.,4.8,1.,4.8
1981-08-29 12:13:12.520 ,2,0,0.,4.8,1.,4.8,0.,4.8,1.,4.8
1981-08-29 12:13:17.320 ,2,0,0.,4.8,0.,4.8,0.,4.8,0.,4.8
1981-08-29 12:13:22.120 ,2,0,0.,4.8,3.,4.8,0.,4.8,0.,4.8
1981-08-29 12:13:26.920 ,2,0,0.,4.8,3.,4.8,0.,4.8,0.,4.8
1981-08-29 12:13:31.720 ,2,0,0.,4.8,1.,4.8,2.,4.8,0.,4.8
1981-08-29 12:13:36.520 ,1,0,0.,4.8,1.,4.8,1.,4.8,0.,4.8
1981-08-29 12:13:41.320 ,1,0,0.,4.8,1.,4.8,0.,4.8,1.,4.8
1981-08-29 12:13:46.120 ,1,0,0.,4.8,2.,4.8,1.,4.8,0.,4.8
1981-08-29 12:13:50.920 ,1,0,0.,4.8,1.,4.8,0.,4.8,0.,4.8
1981-08-29 12:13:55.720 ,1,0,0.,4.8,2.,4.8,1.,4.8,0.,4.8
1981-08-29 12:14:00.520 ,0,0,0.,4.8,1.,4.8,0.,4.8,0.,4.8
1981-08-29 12:14:05.320 ,0,0,0.,4.8,3.,4.8,0.,4.8,0.,4.8
1981-08-29 12:14:10.120 ,0,0,0.,4.8,1.,4.8,1.,4.8,0.,4.8
1981-08-29 12:14:14.920 ,0,0,0.,4.8,1.,4.8,0.,4.8,0.,4.8
1981-08-29 12:14:19.720 ,0,0,0.,4.8,5.,4.8,1.,4.8,1.,4.8
1981-08-29 12:14:24.520 ,0,0,0.,4.8,4.,4.8,0.,4.8,0.,4.8
1981-08-29 12:14:29.320 ,0,0,0.,4.8,3.,4.8,1.,4.8,1.,4.8
1981-08-29 12:14:34.120 ,0,0,0.,4.8,1.,4.8,1.,4.8,1.,4.8
1981-08-29 12:14:38.920 ,0,0,0.,4.8,0.,4.8,1.,4.8,0.,4.8
1981-08-29 12:14:43.720 ,0,0,0.,4.8,0.,4.8,0.,4.8,0.,4.8
1981-08-29 12:14:48.520 ,1,0,0.,4.8,2.,4.8,0.,4.8,0.,4.8
1981-08-29 12:14:53.320 ,1,0,0.,4.8,1.,4.8,1.,4.8,0.,4.8
1981-08-29 12:14:58.120 ,1,0,0.,4.8,0.,4.8,2.,4.8,0.,4.8
1981-08-29 12:15:02.920 ,1,0,0.,4.8,3.,4.8,0.,4.8,0.,4.8
1981-08-29 12:15:07.720 ,1,0,0.,4.8,0.,4.8,1.,4.8,0.,4.8
1981-08-29 12:15:12.520 ,2,0,0.,4.8,1.,4.8,0.,4.8,0.,4.8
1981-08-29 12:15:17.320 ,2,0,0.,4.8,2.,4.8,0.,4.8,0.,4.8
1981-08-29 12:15:22.120 ,2,0,0.,4.8,1.,4.8,0.,4.8,2.,4.8
1981-08-29 12:15:26.920 ,2,0,0.,4.8,3.,4.8,0.,4.8,1.,4.8
1981-08-29 12:15:31.720 ,2,0,0.,4.8,2.,4.8,0.,4.8,0.,4.8
1981-08-29 12:15:36.520 ,3,0,0.,4.8,3.,4.8,0.,4.8,0.,4.8
1981-08-29 12:15:41.320 ,3,0,0.,4.8,3.,4.8,0.,4.8,0.,4.8
1981-08-29 12:15:46.120 ,3,0,0.,4.8,0.,4.8,0.,4.8,0.,4.8
1981-08-29 12:15:50.920 ,3,0,0.,4.8,1.,4.8,1.,4.8,0.,4.8
1981-08-29 12:15:55.720 ,3,0,0.,4.8,3.,4.8,1.,4.8,0.,4.8
1981-08-29 12:16:00.520 ,4,0,0.,4.8,1.,4.8,0.,4.8,0.,4.8
1981-08-29 12:16:05.320 ,4,0,0.,4.8,0.,4.8,0.,4.8,0.,4.8
1981-08-29 12:16:10.120 ,4,0,0.,4.8,1.,4.8,0.,4.8,0.,4.8
1981-08-29 12:16:14.920 ,4,0,0.,4.8,0.,4.8,0.,4.8,0.,4.8
1981-08-29 12:16:19.720 ,4,0,0.,4.8,2.,4.8,2.,4.8,0.,4.8
1981-08-29 12:16:24.520 ,5,0,0.,4.8,2.,4.8,0.,4.8,0.,4.8
1981-08-29 12:16:29.320 ,5,0,0.,4.8,3.,4.8,2.,4.8,0.,4.8
1981-08-29 12:16:34.120 ,5,0,0.,4.8,2.,4.8,0.,4.8,0.,4.8
1981-08-29 12:16:38.920 ,5,0,0.,4.8,2.,4.8,0.,4.8,0.,4.8
1981-08-29 12:16:43.720 ,5,0,0.,4.8,0.,4.8,1.,4.8,0.,4.8
1981-08-29 12:16:48.520 ,6,0,0.,4.8,2.,4.8,0.,4.8,0.,4.8
1981-08-29 12:16:53.320 ,6,0,0.,4.8,1.,4.8,2.,4.8,1.,4.8
1981-08-29 12:16:58.120 ,6,0,0.,4.8,1.,4.8,1.,4.8,0.,4.8
1981-08-29 12:17:02.920 ,6,0,0.,4.8,3.,4.8,0.,4.8,1.,4.8
1981-08-29 12:17:07.720 ,6,0,0.,4.8,2.,4.8,1.,4.8,0.,4.8
1981-08-29 12:17:12.520 ,7,0,0.,4.8,1.,4.8,1.,4.8,0.,4.8
1981-08-29 12:17:17.320 ,7,0,0.,4.8,4.,4.8,0.,4.8,0.,4.8
1981-08-29 12:17:22.120 ,7,0,0.,4.8,0.,4.8,0.,4.8,0.,4.8
1981-08-29 12:17:26.920 ,7,0,0.,4.8,0.,4.8,0.,4.8,0.,4.8
1981-08-29 12:17:31.720 ,7,0,0.,4.8,0.,4.8,0.,4.8,0.,4.8
1981-08-29 12:17:36.520 ,7,0,0.,4.8,1.,4.8,0.,4.8,0.,4.8
1981-08-29 12:17:41.320 ,7,0,0.,4.8,0.,4.8,0.,4.8,0.,4.8
1981-08-29 12:17:46.120 ,7,0,0.,4.8,1.,4.8,0.,4.8,0.,4.8
1981-08-29 12:17:50.920 ,7,0,0.,4.8,0.,4.8,0.,4.8,0.,4.8
1981-08-29 12:17:55.720 ,7,0,0.,4.8,1.,4.8,0.,4.8,0.,4.8
1981-08-29 12:18:00.520 ,7,0,0.,4.8,0.,4.8,0.,4.8,0.,4.8
1981-08-29 12:18:05.320 ,7,0,0.,4.8,0.,4.8,1.,4.8,1.,4.8
1981-08-29 12:18:10.120 ,7,0,0.,4.8,1.,4.8,0.,4.8,0.,4.8
1981-08-29 12:18:14.920 ,7,0,0.,4.8,0.,4.8,0.,4.8,0.,4.8
1981-08-29 12:18:19.720 ,7,0,0.,4.8,0.,4.8,0.,4.8,0.,4.8
1981-08-29 12:18:24.520 ,6,0,0.,4.8,1.,4.8,0.,4.8,0.,4.8
1981-08-29 12:18:29.320 ,6,0,0.,4.8,0.,4.8,0.,4.8,0.,4.8
1981-08-29 12:18:34.120 ,6,0,0.,4.8,2.,4.8,1.,4.8,0.,4.8
1981-08-29 12:18:38.920 ,6,0,0.,4.8,1.,4.8,0.,4.8,0.,4.8
1981-08-29 12:18:43.720 ,6,0,0.,4.8,0.,4.8,0.,4.8,0.,4.8
1981-08-29 12:18:48.520 ,6,0,0.,4.8,0.,4.8,0.,4.8,0.,4.8
1981-08-29 12:18:53.320 ,6,0,0.,4.8,2.,4.8,0.,4.8,0.,4.8
1981-08-29 12:18:58.120 ,6,0,0.,4.8,1.,4.8,0.,4.8,0.,4.8
1981-08-29 12:19:02.920 ,6,0,0.,4.8,0.,4.8,0.,4.8,0.,4.8
1981-08-29 12:19:07.720 ,6,0,0.,4.8,1.,4.8,0.,4.8,0.,4.8
1981-08-29 12:19:12.520 ,5,0,0.,4.8,0.,4.8,0.,4.8,1.,4.8
1981-08-29 12:19:17.320 ,5,0,0.,4.8,1.,4.8,0.,4.8,0.,4.8
1981-08-29 12:19:22.120 ,5,0,0.,4.8,2.,4.8,1.,4.8,0.,4.8
1981-08-29 12:19:26.920 ,5,0,0.,4.8,0.,4.8,0.,4.8,0.,4.8
1981-08-29 12:19:31.720 ,5,0,0.,4.8,0.,4.8,0.,4.8,2.,4.8
1981-08-29 12:19:36.520 ,5,0,0.,4.8,0.,4.8,1.,4.8,0.,4.8
1981-08-29 12:19:41.320 ,5,0,0.,4.8,2.,4.8,1.,4.8,0.,4.8
1981-08-29 12:19:46.120 ,5,0,0.,4.8,1.,4.8,1.,4.8,1.,4.8
1981-08-29 12:19:50.920 ,5,0,0.,4.8,1.,4.8,1.,4.8,1.,4.8
1981-08-29 12:19:55.720 ,5,0,0.,4.8,2.,4.8,0.,4.8,0.,4.8
1981-08-29 12:20:00.520 ,4,0,0.,4.8,1.,4.8,0.,4.8,0.,4.8
1981-08-29 12:20:05.320 ,4,0,0.,4.8,2.,4.8,0.,4.8,0.,4.8
1981-08-29 12:20:10.120 ,4,0,0.,4.8,2.,4.8,0.,4.8,0.,4.8
1981-08-29 12:20:14.920 ,4,0,0.,4.8,0.,4.8,1.,4.8,0.,4.8
1981-08-29 12:20:19.720 ,4,0,0.,4.8,3.,4.8,1.,4.8,0.,4.8
1981-08-29 12:20:24.520 ,4,0,0.,4.8,2.,4.8,1.,4.8,0.,4.8
1981-08-29 12:20:29.320 ,4,0,0.,4.8,2.,4.8,0.,4.8,1.,4.8
1981-08-29 12:20:34.120 ,4,0,0.,4.8,1.,4.8,0.,4.8,1.,4.8
1981-08-29 12:20:38.920 ,4,0,0.,4.8,1.,4.8,0.,4.8,0.,4.8
1981-08-29 12:20:43.720 ,4,0,0.,4.8,0.,4.8,0.,4.8,1.,4.8
1981-08-29 12:20:48.520 ,3,0,0.,4.8,1.,4.8,0.,4.8,0.,4.8
1981-08-29 12:20:53.320 ,3,0,0.,4.8,3.,4.8,1.,4.8,0.,4.8
1981-08-29 12:20:58.120 ,3,0,0.,4.8,0.,4.8,1.,4.8,0.,4.8
1981-08-29 12:21:02.920 ,3,0,0.,4.8,1.,4.8,0.,4.8,0.,4.8
1981-08-29 12:21:07.720 ,3,0,0.,4.8,2.,4.8,0.,4.8,0.,4.8
1981-08-29 12:21:12.520 ,3,0,0.,4.8,2.,4.8,0.,4.8,0.,4.8
1981-08-29 12:21:17.320 ,3,0,0.,4.8,5.,4.8,2.,4.8,0.,4.8
1981-08-29 12:21:22.120 ,3,0,0.,4.8,0.,4.8,1.,4.8,0.,4.8
1981-08-29 12:21:26.920 ,3,0,0.,4.8,1.,4.8,0.,4.8,0.,4.8
1981-08-29 12:21:31.720 ,3,0,0.,4.8,0.,4.8,1.,4.8,0.,4.8
1981-08-29 12:21:36.520 ,2,0,0.,4.8,2.,4.8,0.,4.8,1.,4.8
1981-08-29 12:21:41.320 ,2,0,0.,4.8,0.,4.8,0.,4.8,0.,4.8
1981-08-29 12:21:46.120 ,2,0,0.,4.8,2.,4.8,0.,4.8,0.,4.8
1981-08-29 12:21:50.920 ,2,0,0.,4.8,2.,4.8,0.,4.8,0.,4.8
1981-08-29 12:21:55.720 ,2,0,0.,4.8,4.,4.8,0.,4.8,0.,4.8
1981-08-29 12:22:00.520 ,2,0,0.,4.8,1.,4.8,0.,4.8,0.,4.8
1981-08-29 12:22:05.320 ,2,0,0.,4.8,2.,4.8,0.,4.8,0.,4.8
1981-08-29 12:22:10.120 ,2,0,0.,4.8,1.,4.8,0.,4.8,1.,4.8
1981-08-29 12:22:14.920 ,2,0,0.,4.8,0.,4.8,0.,4.8,0.,4.8
1981-08-29 12:22:19.720 ,2,0,0.,4.8,0.,4.8,1.,4.8,0.,4.8
1981-08-29 12:22:24.520 ,1,0,0.,4.8,0.,4.8,0.,4.8,0.,4.8
1981-08-29 12:22:29.320 ,1,0,0.,4.8,2.,4.8,0.,4.8,0.,4.8
1981-08-29 12:22:34.120 ,1,0,0.,4.8,2.,4.8,0.,4.8,1.,4.8
1981-08-29 12:22:38.920 ,1,0,0.,4.8,0.,4.8,0.,4.8,0.,4.8
1981-08-29 12:22:43.720 ,1,0,0.,4.8,1.,4.8,1.,4.8,0.,4.8
1981-08-29 12:22:48.520 ,1,0,0.,4.8,3.,4.8,0.,4.8,0.,4.8
1981-08-29 12:22:53.320 ,1,0,0.,4.8,1.,4.8,0.,4.8,0.,4.8
1981-08-29 12:22:58.120 ,1,0,0.,4.8,0.,4.8,0.,4.8,0.,4.8
1981-08-29 12:23:02.920 ,1,0,0.,4.8,2.,4.8,0.,4.8,0.,4.8
1981-08-29 12:23:07.720 ,1,0,0.,4.8,2.,4.8,0.,4.8,0.,4.8
1981-08-29 12:23:12.520 ,0,0,0.,4.8,2.,4.8,0.,4.8,0.,4.8
1981-08-29 12:23:17.320 ,0,0,0.,4.8,0.,4.8,0.,4.8,0.,4.8
1981-08-29 12:23:22.120 ,0,0,0.,4.8,1.,4.8,1.,4.8,0.,4.8
1981-08-29 12:23:26.920 ,0,0,0.,4.8,3.,4.8,1.,4.8,0.,4.8
1981-08-29 12:23:31.720 ,0,0,0.,4.8,0.,4.8,1.,4.8,0.,4.8
1981-08-29 12:23:36.520 ,0,0,0.,4.8,0.,4.8,0.,4.8,1.,4.8
1981-08-29 12:23:41.320 ,0,0,0.,4.8,1.,4.8,0.,4.8,0.,4.8
1981-08-29 12:23:46.120 ,0,0,0.,4.8,3.,4.8,0.,4.8,0.,4.8
1981-08-29 12:23:50.920 ,0,0,0.,4.8,2.,4.8,0.,4.8,0.,4.8
1981-08-29 12:23:55.720 ,0,0,0.,4.8,2.,4.8,0.,4.8,0.,4.8
1981-08-29 12:24:00.520 ,0,0,0.,4.8,1.,4.8,1.,4.8,0.,4.8
1981-08-29 12:24:05.320 ,0,0,0.,4.8,0.,4.8,0.,4.8,0.,4.8
1981-08-29 12:24:10.120 ,0,0,0.,4.8,1.,4.8,0.,4.8,0.,4.8
1981-08-29 12:24:14.920 ,0,0,0.,4.8,1.,4.8,0.,4.8,0.,4.8
1981-08-29 12:24:19.720 ,0,0,0.,4.8,2.,4.8,0.,4.8,0.,4.8
1981-08-29 12:24:24.520 ,0,0,0.,4.8,4.,4.8,0.,4.8,1.,4.8
1981-08-29 12:24:29.320 ,0,0,0.,4.8,2.,4.8,1.,4.8,0.,4.8
1981-08-29 12:24:34.120 ,0,0,0.,4.8,3.,4.8,0.,4.8,0.,4.8
1981-08-29 12:24:38.920 ,0,0,0.,4.8,1.,4.8,0.,4.8,0.,4.8
1981-08-29 12:24:43.720 ,0,0,0.,4.8,3.,4.8,0.,4.8,0.,4.8
1981-08-29 12:24:48.520 ,1,0,0.,4.8,1.,4.8,0.,4.8,0.,4.8
1981-08-29 12:24:53.320 ,1,0,0.,4.8,1.,4.8,0.,4.8,0.,4.8
1981-08-29 12:24:58.120 ,1,0,0.,4.8,3.,4.8,1.,4.8,0.,4.8
1981-08-29 12:25:02.920 ,1,0,0.,4.8,1.,4.8,0.,4.8,0.,4.8
1981-08-29 12:25:07.720 ,1,0,0.,4.8,2.,4.8,0.,4.8,0.,4.8
1981-08-29 12:25:12.520 ,0,0,0.,4.8,0.,4.8,0.,4.8,1.,4.8
1981-08-29 12:25:17.320 ,0,0,0.,4.8,1.,4.8,0.,4.8,0.,4.8
1981-08-29 12:25:22.120 ,0,0,0.,4.8,1.,4.8,1.,4.8,0.,4.8
1981-08-29 12:25:26.920 ,0,0,0.,4.8,2.,4.8,1.,4.8,0.,4.8
1981-08-29 12:25:31.720 ,0,0,0.,4.8,2.,4.8,0.,4.8,0.,4.8
1981-08-29 12:25:36.520 ,2,0,0.,4.8,1.,4.8,0.,4.8,0.,4.8
1981-08-29 12:25:41.320 ,2,0,0.,4.8,1.,4.8,0.,4.8,0.,4.8
1981-08-29 12:25:46.120 ,2,0,0.,4.8,0.,4.8,0.,4.8,0.,4.8
1981-08-29 12:25:50.920 ,2,0,0.,4.8,1.,4.8,1.,4.8,0.,4.8
1981-08-29 12:25:55.720 ,2,0,0.,4.8,4.,4.8,0.,4.8,0.,4.8
1981-08-29 12:26:00.520 ,2,0,0.,4.8,0.,4.8,0.,4.8,2.,4.8
1981-08-29 12:26:05.320 ,2,0,0.,4.8,0.,4.8,0.,4.8,0.,4.8
1981-08-29 12:26:10.120 ,2,0,0.,4.8,0.,4.8,0.,4.8,0.,4.8
1981-08-29 12:26:14.920 ,2,0,0.,4.8,1.,4.8,0.,4.8,0.,4.8
1981-08-29 12:26:19.720 ,2,0,0.,4.8,1.,4.8,0.,4.8,0.,4.8
1981-08-29 12:26:24.520 ,3,0,0.,4.8,0.,4.8,0.,4.8,0.,4.8
1981-08-29 12:26:29.320 ,3,0,0.,4.8,1.,4.8,0.,4.8,0.,4.8
1981-08-29 12:26:34.120 ,3,0,0.,4.8,1.,4.8,0.,4.8,0.,4.8
1981-08-29 12:26:38.920 ,3,0,0.,4.8,4.,4.8,0.,4.8,0.,4.8
1981-08-29 12:26:43.720 ,3,0,0.,4.8,1.,4.8,0.,4.8,0.,4.8
1981-08-29 12:26:48.520 ,3,0,0.,4.8,3.,4.8,0.,4.8,0.,4.8
1981-08-29 12:26:53.320 ,3,0,0.,4.8,3.,4.8,0.,4.8,0.,4.8
1981-08-29 12:26:58.120 ,3,0,0.,4.8,0.,4.8,1.,4.8,1.,4.8
1981-08-29 12:27:02.920 ,3,0,0.,4.8,0.,4.8,0.,4.8,0.,4.8
1981-08-29 12:27:07.720 ,3,0,0.,4.8,0.,4.8,0.,4.8,1.,4.8
1981-08-29 12:27:12.520 ,4,0,0.,4.8,1.,4.8,1.,4.8,0.,4.8
1981-08-29 12:27:17.320 ,4,0,0.,4.8,1.,4.8,0.,4.8,0.,4.8
1981-08-29 12:27:22.120 ,4,0,0.,4.8,0.,4.8,1.,4.8,0.,4.8
1981-08-29 12:27:26.920 ,4,0,0.,4.8,2.,4.8,0.,4.8,0.,4.8
1981-08-29 12:27:31.720 ,4,0,0.,4.8,1.,4.8,0.,4.8,0.,4.8
1981-08-29 12:27:36.520 ,4,0,0.,4.8,1.,4.8,0.,4.8,0.,4.8
1981-08-29 12:27:41.320 ,4,0,0.,4.8,1.,4.8,0.,4.8,0.,4.8
1981-08-29 12:27:46.120 ,4,0,0.,4.8,0.,4.8,1.,4.8,0.,4.8
1981-08-29 12:27:50.920 ,4,0,0.,4.8,3.,4.8,0.,4.8,0.,4.8
1981-08-29 12:27:55.720 ,4,0,0.,4.8,1.,4.8,2.,4.8,0.,4.8
1981-08-29 12:28:00.520 ,5,0,0.,4.8,0.,4.8,0.,4.8,0.,4.8
1981-08-29 12:28:05.320 ,5,0,0.,4.8,2.,4.8,1.,4.8,0.,4.8
1981-08-29 12:28:10.120 ,5,0,0.,4.8,0.,4.8,0.,4.8,0.,4.8
1981-08-29 12:28:14.920 ,5,0,0.,4.8,2.,4.8,1.,4.8,1.,4.8
1981-08-29 12:28:19.720 ,5,0,0.,4.8,0.,4.8,0.,4.8,0.,4.8
1981-08-29 12:28:24.520 ,5,0,0.,4.8,1.,4.8,0.,4.8,0.,4.8
1981-08-29 12:28:29.320 ,5,0,0.,4.8,1.,4.8,0.,4.8,0.,4.8
1981-08-29 12:28:34.120 ,5,0,0.,4.8,4.,4.8,1.,4.8,2.,4.8
1981-08-29 12:28:38.920 ,5,0,0.,4.8,0.,4.8,0.,4.8,0.,4.8
1981-08-29 12:28:43.720 ,5,0,0.,4.8,5.,4.8,1.,4.8,1.,4.8
1981-08-29 12:28:48.520 ,6,0,0.,4.8,3.,4.8,0.,4.8,0.,4.8
1981-08-29 12:28:53.320 ,6,0,0.,4.8,0.,4.8,2.,4.8,0.,4.8
1981-08-29 12:28:58.120 ,6,0,0.,4.8,2.,4.8,1.,4.8,0.,4.8
1981-08-29 12:29:02.920 ,6,0,0.,4.8,3.,4.8,1.,4.8,0.,4.8
1981-08-29 12:29:07.720 ,6,0,0.,4.8,3.,4.8,0.,4.8,0.,4.8
1981-08-29 12:29:12.520 ,6,0,0.,4.8,3.,4.8,1.,4.8,0.,4.8
1981-08-29 12:29:17.320 ,6,0,0.,4.8,5.,4.8,1.,4.8,0.,4.8
1981-08-29 12:29:22.120 ,6,0,0.,4.8,1.,4.8,0.,4.8,0.,4.8
1981-08-29 12:29:26.920 ,6,0,0.,4.8,1.,4.8,0.,4.8,0.,4.8
1981-08-29 12:29:31.720 ,6,0,0.,4.8,2.,4.8,0.,4.8,0.,4.8
1981-08-29 12:29:36.520 ,7,0,0.,4.8,3.,4.8,0.,4.8,0.,4.8
1981-08-29 12:29:41.320 ,7,0,0.,4.8,1.,4.8,0.,4.8,0.,4.8
1981-08-29 12:29:46.120 ,7,0,0.,4.8,1.,4.8,0.,4.8,0.,4.8
1981-08-29 12:29:50.920 ,7,0,0.,4.8,0.,4.8,0.,4.8,0.,4.8
1981-08-29 12:29:55.720 ,7,0,0.,4.8,0.,4.8,1.,4.8,0.,4.8
1981-08-29 12:30:00.520 ,7,0,0.,4.8,1.,4.8,0.,4.8,0.,4.8
1981-08-29 12:30:05.320 ,7,0,0.,4.8,1.,4.8,0.,4.8,0.,4.8
1981-08-29 12:30:10.120 ,7,0,0.,4.8,1.,4.8,0.,4.8,0.,4.8
1981-08-29 12:30:14.920 ,7,0,0.,4.8,0.,4.8,0.,4.8,0.,4.8
1981-08-29 12:30:19.720 ,7,0,0.,4.8,1.,4.8,0.,4.8,0.,4.8
1981-08-29 12:30:24.520 ,7,0,0.,4.8,2.,4.8,0.,4.8,0.,4.8
1981-08-29 12:30:29.320 ,7,0,0.,4.8,1.,4.8,1.,4.8,0.,4.8
1981-08-29 12:30:34.120 ,7,0,0.,4.8,0.,4.8,1.,4.8,0.,4.8
1981-08-29 12:30:38.920 ,7,0,0.,4.8,0.,4.8,0.,4.8,0.,4.8
1981-08-29 12:30:43.720 ,7,0,0.,4.8,1.,4.8,0.,4.8,0.,4.8
1981-08-29 12:30:48.520 ,6,0,0.,4.8,2.,4.8,0.,4.8,0.,4.8
1981-08-29 12:30:53.320 ,6,0,0.,4.8,0.,4.8,0.,4.8,0.,4.8
1981-08-29 12:30:58.120 ,6,0,0.,4.8,1.,4.8,2.,4.8,1.,4.8
1981-08-29 12:31:02.920 ,6,0,0.,4.8,1.,4.8,0.,4.8,0.,4.8
1981-08-29 12:31:07.720 ,6,0,0.,4.8,0.,4.8,0.,4.8,1.,4.8
1981-08-29 12:31:12.520 ,5,0,0.,4.8,2.,4.8,1.,4.8,0.,4.8
1981-08-29 12:31:17.320 ,5,0,0.,4.8,1.,4.8,0.,4.8,0.,4.8
1981-08-29 12:31:22.120 ,5,0,0.,4.8,2.,4.8,1.,4.8,0.,4.8
1981-08-29 12:31:26.920 ,5,0,0.,4.8,0.,4.8,0.,4.8,1.,4.8
1981-08-29 12:31:31.720 ,5,0,0.,4.8,1.,4.8,0.,4.8,0.,4.8
1981-08-29 12:31:36.520 ,4,0,0.,4.8,3.,4.8,0.,4.8,0.,4.8
1981-08-29 12:31:41.320 ,4,0,0.,4.8,2.,4.8,0.,4.8,1.,4.8
1981-08-29 12:31:46.120 ,4,0,0.,4.8,0.,4.8,0.,4.8,0.,4.8
1981-08-29 12:31:50.920 ,4,0,0.,4.8,2.,4.8,0.,4.8,0.,4.8
1981-08-29 12:31:55.720 ,4,0,0.,4.8,0.,4.8,0.,4.8,1.,4.8
1981-08-29 12:32:00.520 ,3,0,0.,4.8,0.,4.8,0.,4.8,0.,4.8
1981-08-29 12:32:05.320 ,3,0,0.,4.8,0.,4.8,1.,4.8,0.,4.8
1981-08-29 12:32:10.120 ,3,0,0.,4.8,1.,4.8,0.,4.8,0.,4.8
1981-08-29 12:32:14.920 ,3,0,0.,4.8,2.,4.8,0.,4.8,0.,4.8
1981-08-29 12:32:19.720 ,3,0,0.,4.8,3.,4.8,1.,4.8,0.,4.8
1981-08-29 12:32:24.520 ,2,0,0.,4.8,0.,4.8,1.,4.8,0.,4.8
1981-08-29 12:32:29.320 ,2,0,0.,4.8,0.,4.8,0.,4.8,0.,4.8
1981-08-29 12:32:34.120 ,2,0,0.,4.8,1.,4.8,0.,4.8,0.,4.8
1981-08-29 12:32:38.920 ,2,0,0.,4.8,0.,4.8,1.,4.8,0.,4.8
1981-08-29 12:32:43.720 ,2,0,0.,4.8,0.,4.8,0.,4.8,0.,4.8
1981-08-29 12:32:48.520 ,1,0,0.,4.8,1.,4.8,0.,4.8,0.,4.8
1981-08-29 12:32:53.320 ,1,0,0.,4.8,3.,4.8,0.,4.8,0.,4.8
1981-08-29 12:32:58.120 ,1,0,0.,4.8,4.,4.8,1.,4.8,0.,4.8
1981-08-29 12:33:02.920 ,1,0,0.,4.8,3.,4.8,0.,4.8,0.,4.8
1981-08-29 12:33:07.720 ,1,0,0.,4.8,2.,4.8,0.,4.8,0.,4.8
1981-08-29 12:33:12.520 ,0,0,0.,4.8,0.,4.8,0.,4.8,0.,4.8
1981-08-29 12:33:17.320 ,0,0,0.,4.8,2.,4.8,0.,4.8,1.,4.8